BRU619 UUEE-UMMS

Flight info

Callsign BRU619
Flight time 1h 4m
Altitude 38000
Route LIDRI3H LIDRI T781 REPNU N858 VEPIS T526 RUHAL RUHAL2H
Aircraft A20N/M-SDE2E3FGHIRWXY/LB1

Departure

Time 2026-05-04 13:15
Airport Sheremetyevo International Airport (UUEE)

Arrival

Time 2026-05-04 14:19
Airport Minsk National Airport (UMMS)
Time Latitude Longitude Altitude Speed Heading
2026-05-04 12:54 55.96898 37.42339 639 ft 0 kts 165°
2026-05-04 13:05 55.96899 37.42339 639 ft 0 kts 165°
2026-05-04 13:05 55.96905 37.42336 639 ft 1 kts 164°
2026-05-04 13:05 55.96914 37.42331 643 ft 2 kts 160°
2026-05-04 13:06 55.96925 37.42324 647 ft 2 kts 161°
2026-05-04 13:06 55.96936 37.42316 639 ft 2 kts 148°
2026-05-04 13:06 55.96946 37.42304 639 ft 2 kts 134°
2026-05-04 13:06 55.96954 37.42288 640 ft 2 kts 121°
2026-05-04 13:07 55.96959 37.42269 640 ft 2 kts 107°
2026-05-04 13:07 55.96962 37.42248 642 ft 2 kts 88°
2026-05-04 13:07 55.96962 37.42244 642 ft 0 kts 79°
2026-05-04 13:09 55.96963 37.42247 639 ft 0 kts 79°
2026-05-04 13:10 55.96965 37.42271 644 ft 4 kts 79°
2026-05-04 13:10 55.96972 37.42334 642 ft 7 kts 79°
2026-05-04 13:10 55.96986 37.42437 646 ft 10 kts 76°
2026-05-04 13:10 55.97007 37.42578 640 ft 13 kts 75°
2026-05-04 13:11 55.97043 37.42743 643 ft 15 kts 46°
2026-05-04 13:11 55.97128 37.42864 641 ft 16 kts 56°
2026-05-04 13:11 55.97162 37.43013 641 ft 9 kts 55°
2026-05-04 13:11 55.97227 37.43035 639 ft 11 kts 344°
2026-05-04 13:12 55.97307 37.42996 643 ft 13 kts 345°
2026-05-04 13:12 55.97397 37.42953 641 ft 14 kts 345°
2026-05-04 13:12 55.97509 37.42901 639 ft 19 kts 345°
2026-05-04 13:12 55.97651 37.42833 638 ft 22 kts 345°
2026-05-04 13:13 55.97782 37.42877 646 ft 21 kts 64°
2026-05-04 13:13 55.97826 37.43134 642 ft 23 kts 75°
2026-05-04 13:13 55.97869 37.43415 641 ft 24 kts 74°
2026-05-04 13:13 55.97914 37.43719 641 ft 26 kts 75°
2026-05-04 13:14 55.97949 37.43970 643 ft 14 kts 92°
2026-05-04 13:14 55.97876 37.44059 642 ft 14 kts 162°
2026-05-04 13:14 55.97782 37.44003 640 ft 25 kts 247°
2026-05-04 13:14 55.97673 37.43295 644 ft 92 kts 255°
2026-05-04 13:15 55.97459 37.41864 645 ft 144 kts 255°
2026-05-04 13:15 55.97177 37.39992 984 ft 159 kts 255°
2026-05-04 13:15 55.96870 37.38152 1745 ft 151 kts 255°
2026-05-04 13:15 55.96548 37.36406 2483 ft 146 kts 255°
2026-05-04 13:16 55.96239 37.34611 2915 ft 161 kts 253°
2026-05-04 13:16 55.95877 37.32588 3292 ft 182 kts 253°
2026-05-04 13:16 55.95485 37.30286 3712 ft 206 kts 256°
2026-05-04 13:16 55.95074 37.27709 4264 ft 226 kts 256°
2026-05-04 13:17 55.94640 37.24896 4898 ft 245 kts 256°
2026-05-04 13:17 55.94180 37.21873 5612 ft 258 kts 256°
2026-05-04 13:17 55.93712 37.18795 6665 ft 255 kts 257°
2026-05-04 13:17 55.93244 37.15716 7577 ft 261 kts 257°
2026-05-04 13:18 55.92768 37.12572 8489 ft 264 kts 257°
2026-05-04 13:18 55.92286 37.09387 9383 ft 269 kts 257°
2026-05-04 13:18 55.91796 37.06142 9795 ft 272 kts 257°
2026-05-04 13:18 55.91320 37.02885 9930 ft 271 kts 260°
2026-05-04 13:19 55.91039 36.99520 9989 ft 287 kts 267°
2026-05-04 13:19 55.91013 36.95772 9983 ft 313 kts 273°
2026-05-04 13:19 55.91069 36.91770 9971 ft 336 kts 272°
2026-05-04 13:19 55.91120 36.87416 9950 ft 365 kts 271°
2026-05-04 13:20 55.91165 36.82801 9923 ft 370 kts 271°
2026-05-04 13:20 55.91169 36.78342 9890 ft 350 kts 268°
2026-05-04 13:20 55.90931 36.74210 9858 ft 330 kts 262°
2026-05-04 13:20 55.90459 36.70319 9828 ft 313 kts 257°
2026-05-04 13:21 55.89933 36.66675 9851 ft 294 kts 257°
2026-05-04 13:21 55.89444 36.63203 9941 ft 289 kts 257°
2026-05-04 13:21 55.88952 36.59682 10012 ft 299 kts 258°
2026-05-04 13:21 55.88432 36.55957 10364 ft 317 kts 257°
2026-05-04 13:22 55.87893 36.52130 11190 ft 320 kts 257°
2026-05-04 13:22 55.87345 36.48262 12022 ft 324 kts 257°
2026-05-04 13:22 55.86788 36.44341 12835 ft 329 kts 257°
2026-05-04 13:22 55.86273 36.40354 13634 ft 333 kts 259°
2026-05-04 13:23 55.85788 36.36302 14361 ft 336 kts 259°
2026-05-04 13:23 55.85303 36.32204 15083 ft 340 kts 259°
2026-05-04 13:23 55.84806 36.28064 15767 ft 345 kts 259°
2026-05-04 13:23 55.84293 36.23862 16445 ft 349 kts 258°
2026-05-04 13:24 55.83770 36.19620 17144 ft 354 kts 258°
2026-05-04 13:24 55.83237 36.15325 17830 ft 357 kts 258°
2026-05-04 13:24 55.82696 36.10985 18464 ft 361 kts 258°
2026-05-04 13:25 55.81600 36.02229 19807 ft 364 kts 258°
2026-05-04 13:25 55.81042 35.97804 20366 ft 368 kts 258°
2026-05-04 13:25 55.80475 35.93351 20978 ft 371 kts 258°
2026-05-04 13:25 55.79899 35.88856 21571 ft 374 kts 258°
2026-05-04 13:26 55.79317 35.84323 22157 ft 378 kts 258°
2026-05-04 13:26 55.78728 35.79755 22750 ft 381 kts 258°
2026-05-04 13:26 55.78133 35.75145 23306 ft 385 kts 258°
2026-05-04 13:26 55.77531 35.70499 23821 ft 388 kts 257°
2026-05-04 13:27 55.76930 35.65878 24288 ft 390 kts 258°
2026-05-04 13:27 55.76316 35.61165 24765 ft 393 kts 258°
2026-05-04 13:27 55.75696 35.56398 25096 ft 400 kts 258°
2026-05-04 13:27 55.75269 35.51511 25545 ft 402 kts 265°
2026-05-04 13:28 55.75063 35.46553 26001 ft 404 kts 266°
2026-05-04 13:28 55.74853 35.41563 26431 ft 407 kts 266°
2026-05-04 13:28 55.74635 35.36537 26865 ft 409 kts 266°
2026-05-04 13:28 55.74413 35.31486 27271 ft 412 kts 266°
2026-05-04 13:29 55.74186 35.26398 27678 ft 415 kts 266°
2026-05-04 13:29 55.73956 35.21281 28069 ft 417 kts 266°
2026-05-04 13:29 55.73722 35.16130 28443 ft 420 kts 266°
2026-05-04 13:29 55.73485 35.10947 28813 ft 422 kts 266°
2026-05-04 13:30 55.73244 35.05745 29169 ft 425 kts 266°
2026-05-04 13:30 55.73004 35.00513 29519 ft 427 kts 266°
2026-05-04 13:30 55.72763 34.95246 29866 ft 429 kts 266°
2026-05-04 13:30 55.72519 34.89944 30176 ft 431 kts 266°
2026-05-04 13:31 55.72273 34.84635 30486 ft 433 kts 266°
2026-05-04 13:31 55.72021 34.79298 30790 ft 435 kts 266°
2026-05-04 13:31 55.71770 34.74007 31086 ft 437 kts 266°
2026-05-04 13:31 55.71511 34.68628 31440 ft 437 kts 266°
2026-05-04 13:32 55.71226 34.63272 31859 ft 436 kts 264°
2026-05-04 13:32 55.70680 34.57982 32265 ft 436 kts 258°
2026-05-04 13:32 55.69825 34.52823 32657 ft 437 kts 252°
2026-05-04 13:32 55.68775 34.47791 33176 ft 433 kts 252°
2026-05-04 13:33 55.67739 34.42796 33584 ft 431 kts 252°
2026-05-04 13:33 55.66711 34.37811 33923 ft 431 kts 252°
2026-05-04 13:33 55.65683 34.32831 34205 ft 430 kts 252°
2026-05-04 13:33 55.64652 34.27853 34484 ft 430 kts 252°
2026-05-04 13:34 55.63619 34.22888 34760 ft 430 kts 252°
2026-05-04 13:34 55.62586 34.17931 35025 ft 429 kts 252°
2026-05-04 13:34 55.61552 34.12984 35286 ft 429 kts 252°
2026-05-04 13:34 55.60515 34.08038 35516 ft 429 kts 252°
2026-05-04 13:35 55.59476 34.03092 35750 ft 429 kts 252°
2026-05-04 13:35 55.57392 33.93213 36223 ft 429 kts 251°
2026-05-04 13:35 55.56348 33.88281 36459 ft 428 kts 251°
2026-05-04 13:36 55.55315 33.83414 36675 ft 428 kts 251°
2026-05-04 13:36 55.54268 33.78493 36891 ft 428 kts 251°
2026-05-04 13:36 55.53220 33.73576 37102 ft 428 kts 251°
2026-05-04 13:36 55.52170 33.68666 37308 ft 428 kts 251°
2026-05-04 13:37 55.51167 33.63731 37500 ft 426 kts 255°
2026-05-04 13:37 55.50410 33.58692 37683 ft 425 kts 258°
2026-05-04 13:37 55.49687 33.53642 37841 ft 424 kts 258°
2026-05-04 13:38 55.48243 33.43619 37846 ft 422 kts 257°
2026-05-04 13:38 55.46797 33.33588 37845 ft 422 kts 258°
2026-05-04 13:39 55.45335 33.23567 37845 ft 422 kts 257°
2026-05-04 13:39 55.43853 33.13566 37845 ft 422 kts 257°
2026-05-04 13:40 55.42371 33.03632 37844 ft 422 kts 257°
2026-05-04 13:40 55.40873 32.93646 37849 ft 422 kts 257°
2026-05-04 13:41 55.39365 32.83656 37851 ft 422 kts 257°
2026-05-04 13:41 55.37848 32.73672 37842 ft 422 kts 257°
2026-05-04 13:42 55.35819 32.60402 37856 ft 422 kts 256°
2026-05-04 13:42 55.34286 32.50449 37851 ft 422 kts 256°
2026-05-04 13:43 55.32744 32.40502 37856 ft 422 kts 256°
2026-05-04 13:43 55.31198 32.30581 37874 ft 421 kts 256°
2026-05-04 13:44 55.29643 32.20667 37859 ft 421 kts 256°
2026-05-04 13:44 55.28081 32.10766 37848 ft 421 kts 256°
2026-05-04 13:45 55.26514 32.00884 37848 ft 421 kts 256°
2026-05-04 13:45 55.24937 31.91000 37849 ft 421 kts 256°
2026-05-04 13:46 55.23361 31.81179 37859 ft 417 kts 255°
2026-05-04 13:46 55.21781 31.71390 37859 ft 418 kts 255°
2026-05-04 13:47 55.20201 31.61656 37861 ft 418 kts 255°
2026-05-04 13:47 55.18605 31.51879 37861 ft 418 kts 255°
2026-05-04 13:48 55.16998 31.42095 37861 ft 419 kts 255°
2026-05-04 13:48 55.15381 31.32299 37857 ft 420 kts 255°
2026-05-04 13:49 55.13751 31.22483 37880 ft 421 kts 255°
2026-05-04 13:49 55.12116 31.12695 37857 ft 419 kts 255°
2026-05-04 13:50 55.10224 31.03105 37861 ft 417 kts 246°
2026-05-04 13:50 55.08890 30.98607 37740 ft 418 kts 241°
2026-05-04 13:50 55.07292 30.94358 37462 ft 420 kts 235°
2026-05-04 13:51 55.05432 30.90424 37189 ft 421 kts 229°
2026-05-04 13:51 55.03447 30.86670 36905 ft 422 kts 230°
2026-05-04 13:51 55.01465 30.82881 36637 ft 424 kts 230°
2026-05-04 13:51 54.99481 30.79081 36373 ft 424 kts 230°
2026-05-04 13:52 54.95505 30.71489 35852 ft 425 kts 230°
2026-05-04 13:52 54.93510 30.67691 35595 ft 425 kts 230°
2026-05-04 13:52 54.91512 30.63896 35348 ft 426 kts 230°
2026-05-04 13:53 54.89539 30.60153 35098 ft 426 kts 230°
2026-05-04 13:53 54.87536 30.56362 34856 ft 427 kts 230°
2026-05-04 13:53 54.85526 30.52563 34609 ft 427 kts 230°
2026-05-04 13:54 54.81502 30.44977 34112 ft 428 kts 229°
2026-05-04 13:54 54.79483 30.41177 33886 ft 428 kts 229°
2026-05-04 13:54 54.75435 30.33580 33339 ft 429 kts 229°
2026-05-04 13:55 54.73406 30.29781 33069 ft 430 kts 229°
2026-05-04 13:55 54.69334 30.22176 32536 ft 432 kts 229°
2026-05-04 13:55 54.67293 30.18372 32272 ft 432 kts 229°
2026-05-04 13:56 54.65246 30.14564 32002 ft 433 kts 229°
2026-05-04 13:56 54.63192 30.10749 31746 ft 435 kts 229°
2026-05-04 13:56 54.59085 30.03138 30948 ft 432 kts 229°
2026-05-04 13:57 54.57032 29.99345 30247 ft 432 kts 228°
2026-05-04 13:57 54.54983 29.95563 29541 ft 430 kts 228°
2026-05-04 13:58 54.48981 29.84522 28547 ft 423 kts 228°
2026-05-04 13:58 54.44974 29.77177 27995 ft 418 kts 228°
2026-05-04 13:58 54.42986 29.73542 27721 ft 416 kts 228°
2026-05-04 13:59 54.41009 29.69932 27455 ft 415 kts 228°
2026-05-04 13:59 54.39035 29.66334 27198 ft 413 kts 228°
2026-05-04 13:59 54.35112 29.59192 26682 ft 409 kts 228°
2026-05-04 14:00 54.33171 29.55644 26435 ft 407 kts 228°
2026-05-04 14:00 54.29318 29.48597 25933 ft 404 kts 228°
2026-05-04 14:00 54.27402 29.45101 25678 ft 402 kts 228°
2026-05-04 14:01 54.25488 29.41613 25182 ft 402 kts 228°
2026-05-04 14:01 54.23580 29.38144 24631 ft 400 kts 228°
2026-05-04 14:01 54.19792 29.31279 23543 ft 393 kts 228°
2026-05-04 14:02 54.17924 29.27899 22962 ft 388 kts 228°
2026-05-04 14:02 54.16082 29.24570 22432 ft 383 kts 229°
2026-05-04 14:02 54.14334 29.21198 21902 ft 376 kts 234°
2026-05-04 14:02 54.12863 29.17563 21372 ft 370 kts 240°
2026-05-04 14:03 54.11691 29.13757 20866 ft 364 kts 246°
2026-05-04 14:03 54.10647 29.09846 20349 ft 360 kts 246°
2026-05-04 14:03 54.09608 29.05986 19842 ft 356 kts 246°
2026-05-04 14:03 54.08573 29.02173 19334 ft 353 kts 246°
2026-05-04 14:04 54.06525 28.94666 18322 ft 347 kts 246°
2026-05-04 14:04 54.05510 28.90957 17803 ft 344 kts 246°
2026-05-04 14:04 54.04505 28.87292 17303 ft 339 kts 246°
2026-05-04 14:05 54.02530 28.80103 16329 ft 332 kts 246°
2026-05-04 14:05 54.01566 28.76601 15852 ft 329 kts 246°
2026-05-04 14:05 54.00590 28.73063 15364 ft 326 kts 246°
2026-05-04 14:06 53.99631 28.69589 14894 ft 323 kts 246°
2026-05-04 14:06 53.98679 28.66144 14416 ft 321 kts 246°
2026-05-04 14:06 53.97732 28.62726 13957 ft 319 kts 246°
2026-05-04 14:06 53.96789 28.59326 13468 ft 317 kts 246°
2026-05-04 14:07 53.95854 28.55958 12998 ft 313 kts 246°
2026-05-04 14:07 53.94928 28.52630 12548 ft 310 kts 246°
2026-05-04 14:07 53.94013 28.49341 12095 ft 307 kts 246°
2026-05-04 14:07 53.93053 28.46123 11653 ft 305 kts 242°
2026-05-04 14:08 53.91873 28.43139 11206 ft 304 kts 234°
2026-05-04 14:08 53.90477 28.40450 10769 ft 304 kts 224°
2026-05-04 14:08 53.88668 28.38589 10327 ft 308 kts 202°
2026-05-04 14:08 53.86574 28.38063 10175 ft 303 kts 181°
2026-05-04 14:09 53.82816 28.40781 9724 ft 300 kts 141°
2026-05-04 14:09 53.81253 28.43127 9592 ft 302 kts 142°
2026-05-04 14:10 53.78080 28.47822 9003 ft 303 kts 142°
2026-05-04 14:10 53.76490 28.50154 8627 ft 301 kts 142°
2026-05-04 14:10 53.74913 28.52463 8253 ft 298 kts 142°
2026-05-04 14:10 53.73346 28.54734 7875 ft 295 kts 146°
2026-05-04 14:11 53.71552 28.56191 7518 ft 283 kts 172°
2026-05-04 14:11 53.68012 28.54736 6779 ft 263 kts 224°
2026-05-04 14:11 53.66822 28.52433 6424 ft 259 kts 232°
2026-05-04 14:12 53.65680 28.50103 6060 ft 256 kts 231°
2026-05-04 14:12 53.64561 28.47856 5926 ft 244 kts 233°
2026-05-04 14:12 53.63752 28.42754 5591 ft 227 kts 279°
2026-05-04 14:13 53.64352 28.40290 5243 ft 231 kts 303°
2026-05-04 14:13 53.65495 28.38379 4928 ft 233 kts 316°
2026-05-04 14:13 53.66715 28.36629 4640 ft 233 kts 315°
2026-05-04 14:13 53.68009 28.34974 4366 ft 234 kts 322°
2026-05-04 14:14 53.69395 28.33603 4220 ft 231 kts 326°
2026-05-04 14:14 53.72051 28.30403 4037 ft 232 kts 316°
2026-05-04 14:14 53.73269 28.28636 3933 ft 228 kts 315°
2026-05-04 14:15 53.75560 28.25297 3707 ft 202 kts 314°
2026-05-04 14:15 53.77647 28.22239 3278 ft 196 kts 314°
2026-05-04 14:16 53.79693 28.19240 2785 ft 196 kts 314°
2026-05-04 14:16 53.80719 28.17735 2519 ft 195 kts 314°
2026-05-04 14:17 53.82671 28.14880 2079 ft 167 kts 314°
2026-05-04 14:17 53.83491 28.13676 1852 ft 147 kts 313°
2026-05-04 14:17 53.84940 28.11541 1475 ft 137 kts 313°
2026-05-04 14:18 53.85652 28.10500 1297 ft 134 kts 311°
2026-05-04 14:18 53.87061 28.08423 934 ft 137 kts 314°
2026-05-04 14:19 53.88488 28.06358 633 ft 122 kts 315°
2026-05-04 14:19 53.89011 28.05555 632 ft 91 kts 319°
2026-05-04 14:19 53.89456 28.04905 638 ft 79 kts 318°
2026-05-04 14:19 53.89750 28.04332 641 ft 49 kts 294°
2026-05-04 14:20 53.89743 28.04145 635 ft 4 kts 189°
2026-05-04 14:20 53.89706 28.04146 642 ft 7 kts 162°
2026-05-04 14:20 53.89660 28.04199 635 ft 9 kts 139°
2026-05-04 14:21 53.89530 28.04398 635 ft 16 kts 139°
2026-05-04 14:21 53.89442 28.04526 635 ft 18 kts 139°
2026-05-04 14:21 53.89339 28.04639 638 ft 14 kts 186°
2026-05-04 14:21 53.89281 28.04598 635 ft 9 kts 175°
2026-05-04 14:22 53.89218 28.04636 638 ft 11 kts 183°
2026-05-04 14:22 53.89161 28.04556 639 ft 12 kts 227°
2026-05-04 14:22 53.89101 28.04445 635 ft 14 kts 227°
2026-05-04 14:22 53.89032 28.04314 635 ft 16 kts 228°
2026-05-04 14:23 53.88871 28.04002 635 ft 18 kts 229°
2026-05-04 14:23 53.88785 28.03834 640 ft 19 kts 229°
2026-05-04 14:23 53.88774 28.03711 642 ft 7 kts 321°
2026-05-04 14:24 53.88815 28.03646 635 ft 10 kts 317°
2026-05-04 14:24 53.88820 28.03559 640 ft 9 kts 233°
2026-05-04 14:24 53.88792 28.03457 635 ft 11 kts 246°
2026-05-04 14:24 53.88787 28.03322 635 ft 13 kts 271°
2026-05-04 14:25 53.88830 28.03231 635 ft 11 kts 354°
2026-05-04 14:25 53.88861 28.03235 635 ft 0 kts